Waarnemingen

Advertentie
Mijn weer
Maastricht, Nederland (6380): temperatuur & dauwpunt: 16.01.2017 13:00:00 - 22.01.2017 13:00:00 (CET)Maastricht, Nederland (6380): temperatuur 5cm: 16.01.2017 13:00:00 - 22.01.2017 13:00:00 (CET)Maastricht, Nederland (6380): windsnelheid & windstoten: 16.01.2017 13:00:00 - 22.01.2017 13:00:00 (CET)Maastricht, Nederland (6380): windrichting: 16.01.2017 13:00:00 - 22.01.2017 13:00:00 (CET)Maastricht, Nederland (6380): luchtdruk: 16.01.2017 13:00:00 - 22.01.2017 13:00:00 (CET)Maastricht, Nederland (6380): zicht: 16.01.2017 13:00:00 - 22.01.2017 13:00:00 (CET)Maastricht, Nederland (6380): neerslag: 16.01.2017 13:00:00 - 22.01.2017 13:00:00 (CET)
Datum & Tijd tt [°C] td [°C] tt 5cm [°C] ff [km/u] ff [kn] fx [km/u] fx [kn] dd ppp [hPa] vv [km] rr [mm]
22.01.2017 13:00:00 1,0 -6,0 2,5 4 2 - - - 1027,2 10 -
22.01.2017 12:00:00 0,1 -5,6 1,4 4 2 7 4 - 1027,9 10 0,0
22.01.2017 11:00:00 -0,7 -5,9 -1,7 4 2 7 4 - 1028,0 10 0,0
22.01.2017 10:00:00 -3,3 -6,5 -3,1 5 3 7 4 ZZO 1027,9 10 0,0
22.01.2017 09:00:00 -6,5 -8,6 -8,8 5 3 4 2 Z 1027,8 10 0,0
22.01.2017 08:00:00 -6,6 -8,4 -8,9 8 4 11 6 Z 1027,7 10 0,0
22.01.2017 07:00:00 -6,3 -8,8 -8,2 9 5 11 6 ZZW 1027,9 10 0,0
22.01.2017 06:00:00 -6,4 -7,8 -9,9 8 4 7 4 Z 1028,1 10 0,0
22.01.2017 05:00:00 -5,6 -7,5 -9,6 4 2 7 4 Z 1028,3 10 0,0
22.01.2017 04:00:00 -5,3 -7,6 -8,3 0 0 7 4 N 1028,1 14 0,0
22.01.2017 03:00:00 -4,1 -7,4 -9,1 4 2 7 4 Z 1028,0 13 0,0
22.01.2017 02:00:00 -3,8 -7,1 -7,6 7 4 7 4 Z 1027,9 13 0,0
22.01.2017 01:00:00 -4,3 -7,1 -7,6 8 4 7 4 Z 1028,0 10 0,0
22.01.2017 00:00:00 -2,5 -6,6 -5,9 8 4 14 8 Z 1028,4 10 0,0
21.01.2017 23:00:00 -3,9 -7,3 -6,0 11 6 14 8 ZZW 1028,3 15 0,0
21.01.2017 22:00:00 -3,2 -6,1 -6,7 8 4 22 12 ZZW 1028,4 10 0,0
21.01.2017 21:00:00 -2,3 -5,3 -6,8 5 3 7 4 ZZO 1028,2 10 0,0
21.01.2017 20:00:00 -1,2 -5,5 -5,0 5 3 11 6 ZO 1028,2 10 0,0
21.01.2017 19:00:00 -0,1 -5,4 -3,8 8 4 11 6 OZO 1028,1 10 0,0
21.01.2017 18:00:00 -0,2 -4,8 -3,8 9 5 11 6 O 1028,0 10 0,0
21.01.2017 17:00:00 1,4 -4,4 -0,8 8 4 18 10 O 1027,8 10 0,0
21.01.2017 16:00:00 3,3 -4,2 2,9 9 5 18 10 O 1027,9 10 0,0
21.01.2017 15:00:00 4,0 -4,8 4,1 13 7 18 10 ONO 1028,0 10 0,0
21.01.2017 14:00:00 4,1 -4,7 5,1 9 5 14 8 ONO 1028,6 10 0,0
21.01.2017 13:00:00 3,3 -5,4 4,5 9 5 11 6 O 1029,4 10 0,0
21.01.2017 12:00:00 2,4 -5,3 3,2 8 4 14 8 OZO 1029,7 10 0,0
21.01.2017 11:00:00 0,6 -5,5 0,3 11 6 14 8 O 1030,3 10 0,0
21.01.2017 10:00:00 -1,5 -5,3 -1,7 13 7 14 8 ONO 1030,3 10 0,0
21.01.2017 09:00:00 -3,7 -6,7 -6,9 4 2 14 8 NNO 1030,4 32 0,0
21.01.2017 08:00:00 -3,7 -6,5 -5,0 11 6 25 14 ONO 1030,0 10 0,0
21.01.2017 07:00:00 -3,6 -6,2 -6,3 9 5 14 8 ONO 1030,2 10 0,0
21.01.2017 06:00:00 -3,5 -5,9 -4,6 13 7 22 12 ONO 1030,6 10 0,0
21.01.2017 05:00:00 -2,8 -5,3 -6,4 13 7 18 10 NO 1030,7 10 0,0
21.01.2017 04:00:00 -3,3 -5,4 -6,6 9 5 14 8 ONO 1031,1 10 0,0
21.01.2017 03:00:00 -4,0 -6,1 -5,2 13 7 14 8 NO 1031,3 8 0,0
21.01.2017 02:00:00 -4,5 -6,4 -5,8 9 5 14 8 NO 1031,6 10 0,0
21.01.2017 01:00:00 -3,9 -6,1 -5,0 15 8 14 8 NNO 1031,9 10 0,0
21.01.2017 00:00:00 -3,3 -5,5 -4,3 11 6 14 8 NNO 1032,3 10 0,0
20.01.2017 23:00:00 -4,2 -6,1 -5,4 11 6 14 8 NNO 1032,7 10 0,0
20.01.2017 22:00:00 -3,5 -5,7 -5,2 13 7 14 8 NNO 1032,9 10 0,0
20.01.2017 21:00:00 -2,8 -5,5 -4,9 11 6 11 6 NO 1033,0 10 0,0
20.01.2017 20:00:00 -2,9 -5,8 -4,2 11 6 18 10 NO 1033,1 10 0,0
20.01.2017 19:00:00 -0,1 -5,2 -1,5 15 8 18 10 NO 1033,2 10 0,0
20.01.2017 18:00:00 0,8 -6,1 -1,1 13 7 18 10 ONO 1033,3 10 0,0
20.01.2017 17:00:00 2,4 -8,7 1,5 16 9 22 12 ONO 1033,2 10 0,0
20.01.2017 16:00:00 4,1 -10,5 3,9 18 10 29 16 ONO 1033,2 10 0,0
20.01.2017 15:00:00 4,0 -10,8 3,8 18 10 25 14 ONO 1033,4 10 0,0
20.01.2017 14:00:00 2,9 -9,5 3,4 21 11 29 16 ONO 1033,7 10 0,0
20.01.2017 13:00:00 2,4 -9,6 3,2 16 9 29 16 ONO 1034,0 10 0,0
20.01.2017 12:00:00 1,2 -9,0 1,9 16 9 25 14 ONO 1034,6 10 0,0
20.01.2017 11:00:00 0,0 -7,7 -0,2 11 6 18 10 O 1035,1 10 0,0
20.01.2017 10:00:00 -2,4 -8,0 -2,4 13 7 18 10 O 1035,2 10 0,0
20.01.2017 09:00:00 -4,1 -8,6 -5,3 9 5 18 10 O 1035,2 10 0,0
20.01.2017 08:00:00 -4,0 -8,6 -4,9 15 8 22 12 ONO 1035,1 10 0,0
20.01.2017 07:00:00 -3,9 -8,4 -4,7 16 9 22 12 ONO 1034,9 10 0,0
20.01.2017 06:00:00 -3,8 -8,1 -4,9 16 9 22 12 ONO 1035,1 10 0,0
20.01.2017 05:00:00 -3,8 -7,9 -5,0 15 8 18 10 O 1035,3 10 0,0
20.01.2017 04:00:00 -4,2 -7,2 -5,6 11 6 14 8 ONO 1035,4 10 0,0
20.01.2017 03:00:00 -3,9 -6,8 -5,7 13 7 14 8 NO 1035,1 10 0,0
20.01.2017 02:00:00 -6,0 -7,9 -7,0 11 6 14 8 NO 1035,4 10 0,0
20.01.2017 01:00:00 -5,3 -7,4 -6,7 11 6 14 8 NO 1035,7 10 0,0
20.01.2017 00:00:00 -4,9 -7,6 -6,9 8 4 11 6 NO 1036,2 10 0,0
19.01.2017 23:00:00 -3,4 -6,4 -7,2 5 3 7 4 O 1036,5 10 0,0
19.01.2017 22:00:00 -3,9 -6,6 -7,2 8 4 7 4 O 1036,7 10 0,0
19.01.2017 21:00:00 -4,0 -6,7 -6,1 8 4 11 6 ONO 1037,0 10 0,0
19.01.2017 20:00:00 -3,2 -6,6 -5,6 8 4 11 6 O 1037,0 10 0,0
19.01.2017 19:00:00 -1,3 -5,9 -4,5 8 4 11 6 O 1036,8 10 0,0
19.01.2017 18:00:00 -1,2 -6,2 -3,4 11 6 14 8 ONO 1036,8 10 0,0
19.01.2017 17:00:00 -0,3 -6,5 -1,2 13 7 22 12 ONO 1036,7 10 0,0
19.01.2017 16:00:00 0,9 -6,1 0,6 15 8 22 12 NO 1036,6 10 0,0
19.01.2017 15:00:00 1,2 -6,2 1,3 15 8 22 12 ONO 1036,5 10 0,0
19.01.2017 14:00:00 0,9 -6,2 1,6 18 10 25 14 NO 1036,7 10 0,0
19.01.2017 13:00:00 0,8 -7,2 1,6 15 8 29 16 ONO 1037,2 10 0,0
19.01.2017 12:00:00 -0,2 -7,6 0,6 18 10 25 14 O 1037,4 10 0,0
19.01.2017 11:00:00 -1,6 -7,3 -1,6 22 12 29 16 ONO 1038,0 10 0,0
19.01.2017 10:00:00 -3,1 -7,2 -3,3 18 10 25 14 ONO 1037,8 10 0,0
19.01.2017 09:00:00 -4,6 -7,9 -5,3 14 8 18 10 ONO 1037,5 17 0,0
19.01.2017 08:00:00 -4,9 -7,8 -5,5 14 8 25 14 ONO 1037,3 14 0,0
19.01.2017 07:00:00 -4,7 -7,6 -5,3 18 10 25 14 ONO 1036,9 13 0,0
19.01.2017 06:00:00 -4,7 -7,4 -5,1 18 10 25 14 ONO 1037,1 14 0,0
19.01.2017 05:00:00 -4,4 -7,0 -5,0 16 9 25 14 ONO 1037,5 10 0,0
19.01.2017 04:00:00 -4,4 -6,8 -4,9 14 8 22 12 ONO 1037,4 12 0,0
19.01.2017 03:00:00 -4,4 -6,4 -5,2 13 7 18 10 ONO 1037,7 9 0,0
19.01.2017 02:00:00 -4,4 -5,7 -5,0 14 8 18 10 ONO 1037,8 5 0,0
19.01.2017 01:00:00 -4,4 -5,7 -5,7 13 7 14 8 NO 1037,6 3,4 0,0
19.01.2017 00:00:00 -4,7 -5,9 -4,9 11 6 18 10 NO 1037,8 3,1 0,0
18.01.2017 23:00:00 -3,8 -5,0 -5,6 11 6 14 8 NO 1038,0 2,6 0,0
18.01.2017 22:00:00 -3,7 -4,8 -4,7 13 7 14 8 NO 1038,0 2,8 0,0
18.01.2017 21:00:00 -3,9 -5,1 -4,4 15 8 18 10 NO 1038,3 3,6 0,0
18.01.2017 20:00:00 -2,8 -5,1 -3,6 13 7 18 10 NO 1038,3 8 0,0
18.01.2017 19:00:00 -2,4 -5,3 -3,2 11 6 18 10 NO 1038,4 10 0,0
18.01.2017 18:00:00 -2,5 -5,3 -3,4 13 7 22 12 NO 1038,6 10 0,0
18.01.2017 17:00:00 -1,9 -5,2 -2,3 13 7 22 12 ONO 1038,8 10 0,0
18.01.2017 16:00:00 -1,6 -5,2 -1,5 18 10 25 14 NO 1038,9 10 0,0
18.01.2017 15:00:00 -1,4 -5,4 -1,2 18 10 25 14 ONO 1038,8 10 0,0
18.01.2017 14:00:00 -1,1 -5,3 -0,6 15 8 25 14 ONO 1038,8 10 0,0
18.01.2017 13:00:00 -2,0 -5,3 -1,9 21 11 29 16 ONO 1039,4 10 0,0
18.01.2017 12:00:00 -2,3 -5,4 -1,9 16 9 25 14 ONO 1039,6 10 0,0
18.01.2017 11:00:00 -3,4 -5,9 -3,3 11 6 18 10 ONO 1039,8 10 0,0
18.01.2017 10:00:00 -4,6 -6,3 -4,5 11 6 18 10 ONO 1039,8 6 0,0
18.01.2017 09:00:00 -5,8 -7,1 -6,2 9 5 25 14 ONO 1039,3 4,9 0,0
18.01.2017 08:00:00 -5,6 -6,7 -6,0 9 5 22 12 ONO 1039,0 3,7 0,0
18.01.2017 07:00:00 -5,4 -6,4 -5,8 11 6 18 10 ONO 1039,2 3,4 0,0
18.01.2017 06:00:00 -5,6 -6,5 -6,0 13 7 18 10 ONO 1039,0 3,4 0,0
18.01.2017 05:00:00 -5,2 -6,1 -5,5 13 7 22 12 ONO 1038,9 3,0 0,0
18.01.2017 04:00:00 -5,8 -6,6 -6,1 11 6 18 10 NO 1038,9 3,0 0,0
18.01.2017 03:00:00 -6,5 -7,6 -6,9 9 5 18 10 NO 1039,2 2,9 0,0
18.01.2017 02:00:00 -5,4 -6,1 -5,5 11 6 22 12 NO 1039,1 3,7 0,0
18.01.2017 01:00:00 -4,4 -5,5 -4,9 15 8 22 12 ONO 1039,1 3,4 0,0
18.01.2017 00:00:00 -4,2 -5,3 -4,6 13 7 22 12 ONO 1038,9 3,1 0,0
17.01.2017 23:00:00 -4,1 -5,3 -4,5 11 6 18 10 NO 1039,1 3,7 0,0
17.01.2017 22:00:00 -3,4 -4,9 -3,9 8 4 18 10 ONO 1039,1 4,8 0,0
17.01.2017 21:00:00 -4,5 -5,6 -5,2 9 5 18 10 NO 1038,9 4,1 0,0
17.01.2017 20:00:00 -4,6 -5,9 -5,5 9 5 18 10 NO 1038,9 6 0,0
17.01.2017 19:00:00 -4,0 -5,7 -4,8 11 6 14 8 NNO 1038,5 8 0,0
17.01.2017 18:00:00 -3,2 -5,6 -4,8 8 4 14 8 NO 1038,2 10 0,0
17.01.2017 17:00:00 -1,6 -5,0 -2,5 9 5 18 10 NO 1038,0 10 0,0
17.01.2017 16:00:00 -0,9 -4,9 -1,0 9 5 18 10 NO 1037,7 10 0,0
17.01.2017 15:00:00 -1,0 -5,4 -0,6 9 5 18 10 NO 1037,5 10 0,0
17.01.2017 14:00:00 -1,2 -5,6 0,0 9 5 18 10 ONO 1037,5 10 0,0
17.01.2017 13:00:00 -1,2 -5,4 0,0 8 4 14 8 NNO 1038,1 10 0,0
17.01.2017 12:00:00 -2,0 -5,5 -0,9 8 4 14 8 NO 1038,2 10 0,0
17.01.2017 11:00:00 -2,9 -6,3 -2,6 9 5 29 16 ONO 1038,2 10 0,0
17.01.2017 10:00:00 -3,8 -6,6 -3,6 11 6 22 12 O 1037,7 10 0,0
17.01.2017 09:00:00 -4,4 -6,8 -5,0 11 6 22 12 ONO 1037,4 9 0,0
17.01.2017 08:00:00 -4,4 -6,6 -4,9 13 7 22 12 O 1036,4 9 0,0
17.01.2017 07:00:00 -3,3 -5,3 -3,2 15 8 - - ONO 1035,8 7 0,0
17.01.2017 06:00:00 -3,5 -5,2 -3,4 16 9 25 14 ONO 1035,4 5 0,0
17.01.2017 05:00:00 -3,6 -5,3 -3,5 13 7 25 14 ONO 1035,0 4,6 0,0
17.01.2017 04:00:00 -3,6 -5,2 -3,4 16 9 - - NO 1034,7 3,8 0,0
17.01.2017 03:00:00 -3,3 -4,7 -3,1 13 7 22 12 ONO 1034,3 3,8 0,0
17.01.2017 02:00:00 -3,3 -4,1 -3,2 15 8 22 12 NO 1033,8 2,4 0,0
17.01.2017 01:00:00 -3,8 -4,4 -4,0 11 6 22 12 NO 1033,7 2,1 0,0
17.01.2017 00:00:00 -2,9 -3,6 -2,9 11 6 14 8 NO 1033,3 2,6 0,0
16.01.2017 23:00:00 -2,9 -3,6 -3,4 13 7 14 8 NO 1032,7 2,3 0,0
16.01.2017 22:00:00 -4,0 -4,9 -5,0 11 6 14 8 NO 1032,1 3,3 0,0
16.01.2017 21:00:00 -3,9 -5,0 -4,9 13 7 11 6 NNO 1031,5 4,7 0,0
16.01.2017 20:00:00 -2,3 -3,8 -2,8 9 5 14 8 NNW 1030,9 4,6 0,0
16.01.2017 19:00:00 -1,5 -3,6 -2,6 13 7 18 10 NNO 1030,2 6 0,0
16.01.2017 18:00:00 -1,2 -3,4 -1,6 13 7 18 10 NNO 1029,5 7 0,0
16.01.2017 17:00:00 -0,6 -3,1 -0,9 11 6 14 8 NNO 1029,0 8 0,0
16.01.2017 16:00:00 0,5 -2,8 0,4 5 3 18 10 NO 1028,5 10 0,0
16.01.2017 15:00:00 0,7 -2,2 0,9 11 6 18 10 NO 1028,2 9 0,0
16.01.2017 14:00:00 0,9 -2,0 1,4 9 5 22 12 ONO 1027,7 9 0,0
16.01.2017 13:00:00 1,0 -1,7 1,4 11 6 18 10 NO 1027,6 10 0,0

tt = temperatuur
td = dauwpunt
tt 5cm = temperatuur 5cm
ff = windsnelheid
fx = windstoten
dd = windrichting
ppp = luchtdruk
vv = zicht
rr = neerslag

Weerstations in de omgeving